Flag for U.S.A. Weather past 2 weeks in Lafayette, Louisiana, U.S.A.

Now
71 °F

Fog.


Feels Like: 65 °F
Forecast: 72 / 90 °F
Wind: 5 mph from Northeast

Location: Lafayette Regional Airport

Current Time: Sep 15, 2014 at 4:59:38 AM

Latest Report: Sep 15, 2014 at 3:53 AM


Visibility: 6 mi

Pressure: 30.08 "Hg

Humidity: 96%

Dew point: 70 °F

Location of LafayetteLocation

Historic Weather in Lafayette — Graph

°F

Lafayette temperature yesterday

Maximum temperature yesterday: 83 °F (at 4:53 PM)
Minimum temperature yesterday: 69 °F (at 1:53 AM)
Average temperature yesterday: 74 °F

Past Weeks' High & Low Weather Summary

 TemperatureHumidityPressure
High92 °F (Sep 3, 2:53 PM)100% (Sep 8, 6:53 AM)30.15 "Hg (Sep 8, 6:53 AM)
Low69 °F (Sep 14, 1:53 AM)52% (Sep 10, 3:53 PM)29.88 "Hg (Sep 10, 5:53 PM)
Average80 °F84%30.01 "Hg
* Reported Aug 31 3:53 AM — Sep 15 3:53 AM, Lafayette, Weather by CustomWeather, © 2014

Note: Actual official high and low records may vary slightly from our data, if they occured in-between our weather recording intervals... More about our weather records

Advertising

Lafayette weather history for previous 24 hours

 ConditionsComfort  
Time TempWeatherWind HumidityBarometerVisibility
3:53 AM
Sep 15
71 °FFog.5 mph96%30.08 "Hg6 mi
2:53 AM72 °FClear.5 mph97%30.07 "Hg7 mi
1:53 AM72 °FClear.7 mph97%30.08 "Hg9 mi
12:53 AM72 °FClear.6 mph97%30.09 "Hg9 mi
11:53 PM
Sep 14
72 °FClear.6 mph97%30.10 "Hg9 mi
10:53 PM73 °FClear.7 mph94%30.10 "Hg10 mi
9:53 PM73 °FClear.8 mph94%30.10 "Hg10 mi
8:53 PM74 °FClear.8 mph91%30.09 "Hg10 mi
7:53 PM76 °FSunny.8 mph88%30.07 "Hg10 mi
6:53 PM79 °FSunny.9 mph79%30.06 "Hg10 mi
5:53 PM83 °FSunny.9 mph70%30.05 "Hg10 mi
4:53 PM83 °FPassing clouds.10 mph70%30.06 "Hg10 mi
3:53 PM82 °FSunny.10 mph72%30.07 "Hg10 mi
2:53 PM80 °FOvercast.13 mph74%30.08 "Hg10 mi
2:00 PM78 °FOvercast.9 mph76%30.10 "Hg10 mi
12:53 PM77 °FLow clouds.9 mph79%30.12 "Hg8 mi
11:53 AM75 °FLow clouds.10 mph82%30.14 "Hg9 mi
10:53 AM74 °FLow clouds.8 mph82%30.15 "Hg10 mi
9:53 AM72 °FLow clouds.10 mph87%30.15 "Hg10 mi
8:53 AM70 °FLow clouds.10 mph90%30.14 "Hg8 mi
7:53 AM69 °FLow clouds.7 mph93%30.14 "Hg8 mi
6:53 AM69 °FLow clouds.10 mph93%30.12 "Hg9 mi
5:53 AM69 °FLow clouds.9 mph93%30.11 "Hg10 mi
4:53 AM69 °FFog.9 mph93%30.10 "Hg6 mi
Weather by CustomWeather, © 2014

See weather overviewHow to use our weather pages